Flag for U.S.A. Weather past 2 weeks in Lincoln, Nebraska, U.S.A.

Now
78 °F

Sunny.


Feels Like: 79 °F
Forecast: 63 / 78 °F
Wind: 6 mph from Northwest

Location: Lincoln Municipal Airport

Current Time: Sep 1, 2014 at 4:15:10 PM

Latest Report: Sep 1, 2014 at 2:54 PM


Visibility: 10 mi

Pressure: 29.87 "Hg

Humidity: 52%

Dew point: 59 °F

Location of LincolnLocation

Historic Weather in Lincoln — Graph

°F

Lincoln temperature yesterday

Maximum temperature yesterday: 91 °F (at 3:54 PM)
Minimum temperature yesterday: 67 °F (at 6:54 AM)
Average temperature yesterday: 74 °F

Past Weeks' High & Low Weather Summary

 TemperatureHumidityPressure
High95 °F (Aug 20, 3:54 PM)97% (Aug 28, 3:54 AM)30.17 "Hg (Aug 28, 3:54 AM)
Low62 °F (Sep 1, 6:54 AM)37% (Aug 19, 1:54 PM)29.59 "Hg (Aug 31, 5:54 PM)
Average77 °F72%29.86 "Hg
* Reported Aug 17 2:54 PM — Sep 1 2:54 PM, Lincoln, Weather by CustomWeather, © 2014

Note: Actual official high and low records may vary slightly from our data, if they occured in-between our weather recording intervals... More about our weather records

Advertising

Lincoln weather history for previous 24 hours

 ConditionsComfort  
Time TempWeatherWind HumidityBarometerVisibility
2:54 PM
Sep 1
78 °FSunny.6 mph52%29.87 "Hg10 mi
1:54 PM79 °FSunny.12 mph52%29.87 "Hg10 mi
12:54 PM79 °FSunny.8 mph52%29.86 "Hg10 mi
11:54 AM77 °FSunny.13 mph58%29.87 "Hg10 mi
10:54 AM73 °FSunny.3 mph66%29.86 "Hg10 mi
9:54 AM70 °FPassing clouds.7 mph73%29.85 "Hg10 mi
8:54 AM67 °FSunny.6 mph81%29.84 "Hg10 mi
7:54 AM63 °FSunny.6 mph90%29.83 "Hg10 mi
6:54 AM62 °FClear.No wind86%29.79 "Hg10 mi
5:54 AM64 °FClear.7 mph84%29.75 "Hg10 mi
4:54 AM65 °FClear.No wind91%29.72 "Hg10 mi
3:54 AM67 °FPassing clouds.7 mph93%29.70 "Hg10 mi
2:54 AM68 °FPassing clouds.7 mph90%29.69 "Hg10 mi
1:54 AM67 °FClear.5 mph93%29.70 "Hg10 mi
12:54 AM68 °FClear.5 mph93%29.69 "Hg10 mi
11:54 PM
Aug 31
68 °FClear.6 mph93%29.70 "Hg10 mi
10:54 PM68 °FClear.3 mph90%29.67 "Hg10 mi
9:54 PM69 °FClear.5 mph87%29.64 "Hg10 mi
8:54 PM69 °FPassing clouds.12 mph87%29.64 "Hg10 mi
7:54 PM70 °FThundershowers. Mostly cloudy.10 mph90%29.71 "Hg10 mi
6:54 PM73 °FThundershowers. Mostly cloudy.5 mph84%29.68 "Hg10 mi
5:54 PM81 °FStrong thunderstorms. Mostly cloudy.15 mph82%29.59 "Hg4 mi
4:54 PM88 °FOvercast.3 mph50%29.60 "Hg10 mi
Weather by CustomWeather, © 2014

See weather overviewHow to use our weather pages